Tracking 35331 objects as of 15-Sep-2026
HD Live streaming from Space Station
objects crossing your sky now

CZ-2F DEB


CZ-2F DEB is no longer on orbit


NORAD ID: 59595
Int'l Code: 2024-078E
Launch date: April 25, 2024
Source: People's Republic of China (PRC)
Launch site: Jiuquan Satellite Launch Center, China (JSC)
Decay date: 2024-04-27

Note: This is SATELLITE DEBRIS
Your satellite tracking list
Your tracking list is empty




NASA's NSSDC Master Catalog

Two Line Element Set (TLE):
1 59595U 24078E   24117.85336774  .13837883  68135-5  88539-2 0  9996
2 59595  41.2954  36.8973 0161439 124.3929 237.3200 15.94157667   211
Source of the keplerian elements: AFSPC